OPS 4682 DEB

Satellite information

Favourite Embed

Satellite Type and Status

DEBRISIN ORBIT

Key statistics

Satellite OPS 4682 DEB at a glance.

Uptime

22116

Days in orbit

Revolutions

≈ 13.0

Per day

Orbit

SSO

Sun Synchronous Orbit

Inclination

90.2

Latest

Satellite identification and parameters

Extended collection of information and parameters for OPS 4682 DEB.

Object identification

Identified? True

Debris? True

Object name: OPS 4682 DEB

International designator: 1965-027DP

Object number (NORAD): 38410

Object ID (CCSDS): 38410

Country: UNITED STATES OF AMERICA (US)

Current information (Y/N): Y

RCS size: SMALL

Orbital parameters

Period: 110.986 minutes

Inclination: 90.2452 deg

SMA: 7650.197 km

Apoapsis: 1296.35 km

Periapsis: 1247.775 km

RAAN: 5.3986 deg

Eccentricy: 0.00317471

Argument of periapsis: 29.8794 deg

Mean anomaly: 330.4131 deg

Mean motion: 12.97459467 rev/day

Mean motion (dot): 0.00000772 rev/day2

B* drag term: 0.0026300822 1/REarth

Two-line elements (TLE)

Creation date: Oct. 18, 2025, 2:17 a.m.

Reference frame: TEME

Reference center: EARTH

Epoch: Oct. 17, 2025, 4:07 p.m. UTC

TLE line 0: 0 OPS 4682 DEB

TLE line 1: 1 38410U 65027DP 25290.67166101 .00000772 00000-0 26301-2 0 9992

TLE line 2: 2 38410 90.2452 5.3986 0031747 29.8794 330.4131 12.97459467599554

Live tracking on map

Real-time ground track for satellite OPS 4682 DEB.

In-orbit conjunctions

There are no conjunctions computed for OPS 4682 DEB, at the moment. Check back to stay up to date, as we update our databases every day.

Go to all conjunctions

Associated space launch

Experimental satellite equipped with a nuclear power system and a cesium ion engine.

OPS 4682 DEB was lifted into orbit during the mission ‘Atlas SLV-3 Agena D | SNAPSHOT-1’, on board a Atlas SLV-3 Agena D space rocket.

The launch took place on April 3, 1965, 9:25 p.m. from Space Launch Complex 4E.

For more information about the launch, click the button.

Launch to space Atlas SLV-3 Agena D | SNAPSHOT-1
Atlas SLV-3 Agena D | SNAPSHOT-1

Agency: N/A

Status: Launch Successful

Launch date: April 3, 1965, 9:25 p.m. UTC

Rocket: Atlas SLV-3 Agena D

Launch pad: Space Launch Complex 4E

Location: Vandenberg SFB, CA, USA

...

Latest news about this satellite

There are no fresh news available about this satellite. Check back as we update our databases every day.


Newsletter sign-up

Weekly statistics, charts and insights to help you stay on top of the space industry.